This demonstration page uses our WeatherBlox Daily Observations layout. Learn more.

Left ArrowRight Arrow

34.02893, -84.19858

Hourly Observations for August 25, 2020

Temp ( °F °C ) Dew Point ( °F °C ) Humidity (%) Winds ( mph kmh ) Pressure ( in mb ) Visibility ( mi km ) Precip ( " mm )
12:01 am 00:01 Mostly Clear with Light Rain 72 22.2 71 21.7 97 97 VRB 3 6 30.10 1019 10 16 0.00 0.00
12:25 am 00:25 Mostly Cloudy with Light Rain 72 22.2 71 21.7 97 97 VRB 5 7 30.09 1019 10 16 0.01 0.25
12:53 am 00:53 Cloudy 72 22.2 72 22.2 100 100 VRB 3 6 30.07 1018 10 16 0.01 0.25
1:53 am 01:53 Cloudy 73 22.8 72 22.2 96 96 Calm 30.07 1018 10 16 0.00 0.00
2:22 am 02:22 Cloudy 73 22.8 72 22.2 96 96 Calm 30.08 1019 10 16 0.00 0.00
2:53 am 02:53 Cloudy 73 22.8 73 22.8 100 100 Calm 30.07 1018 10 16 0.00 0.00
3:38 am 03:38 Cloudy with Mist and Fog 73 22.8 73 22.8 100 100 Calm 30.09 1019 2 3 0.00 0.00
3:53 am 03:53 Cloudy with Mist and Fog 73 22.8 73 22.8 100 100 Calm 30.07 1018 3 4 0.00 0.00
4:18 am 04:18 Cloudy with Mist and Fog 72 22.2 72 22.2 100 100 SE 3 6 30.08 1018 4 6 0.00 0.00
4:53 am 04:53 Mostly Cloudy 72 22.2 72 22.2 100 100 Calm 30.06 1018 10 16 0.00 0.00
5:36 am 05:36 Cloudy 73 22.8 72 22.2 96 96 Calm 30.07 1018 10 16 0.00 0.00
5:53 am 05:53 Cloudy with Light Rain 73 22.8 72 22.2 96 96 Calm 30.06 1018 9 14 0.01 0.25
6:09 am 06:09 Cloudy with Light Rain 73 22.8 72 22.2 96 96 Calm 30.07 1018 7 11 0.00 0.00
6:25 am 06:25 Cloudy 72 22.2 72 22.2 100 100 Calm 30.09 1019 10 16 0.01 0.25
6:32 am 06:32 Cloudy 72 22.2 72 22.2 100 100 Calm 30.09 1019 10 16 0.01 0.25
6:41 am 06:41 Cloudy 72 22.2 72 22.2 100 100 Calm 30.09 1019 10 16 0.01 0.25
6:53 am 06:53 Cloudy 72 22.2 72 22.2 100 100 Calm 30.08 1019 10 16 0.01 0.25
7:00 am 07:00 Cloudy 72 22.2 72 22.2 100 100 Calm 30.09 1019 10 16 0.00 0.00
7:07 am 07:07 Cloudy 72 22.2 72 22.2 100 100 Calm 30.09 1019 10 16 0.00 0.00
7:53 am 07:53 Cloudy 73 22.8 72 22.2 96 96 Calm 30.09 1019 10 16 0.00 0.00
8:03 am 08:03 Cloudy with Light Rain 73 22.8 72 22.2 96 96 VRB 3 6 30.10 1019 8 13 0.01 0.25
8:53 am 08:53 Cloudy with Light Rain 73 22.8 72 22.2 96 96 Calm 30.10 1019 7 11 0.01 0.25
9:00 am 09:00 Cloudy with Light Rain 73 22.8 72 22.2 96 96 Calm 30.10 1019 9 14 0.01 0.25
9:06 am 09:06 Cloudy with Light Rain 73 22.8 72 22.2 96 96 Calm 30.10 1019 7 11 0.01 0.25
9:53 am 09:53 Cloudy with Rain 73 22.8 73 22.8 100 100 Calm 30.11 1020 7 11 0.08 2.03
9:55 am 09:55 Cloudy with Rain 73 22.8 73 22.8 100 100 Calm 30.12 1020 3 5 0.00 0.00
10:53 am 10:53 Cloudy with Rain 73 22.8 73 22.8 100 100 VRB 3 6 30.13 1020 3 5 0.15 3.81
11:04 am 11:04 Cloudy with Rain 73 22.8 73 22.8 100 100 ENE 3 6 30.13 1020 3 4 0.04 1.02
11:19 am 11:19 Cloudy with Rain 73 22.8 72 22.2 96 96 VRB 5 7 30.12 1020 3 5 0.09 2.29
11:53 am 11:53 Cloudy with Rain 73 22.8 73 22.8 100 100 Calm 30.12 1020 4 6 0.14 3.56
12:00 pm 12:00 Cloudy with Light Rain 73 22.8 73 22.8 100 100 Calm 30.12 1020 4 6 0.02 0.51
12:14 pm 12:14 Cloudy with Light Rain 73 22.8 72 22.2 96 96 E 3 6 30.12 1020 5 8 0.04 1.02
12:53 pm 12:53 Cloudy with Light Rain 74 23.3 73 22.8 97 97 Calm 30.12 1020 9 14 0.06 1.52
1:53 pm 13:53 Cloudy with Light Rain 74 23.3 73 22.8 97 97 NNE 5 7 30.11 1020 6 10 0.07 1.78
2:18 pm 14:18 Cloudy with Light Rain 74 23.3 73 22.8 97 97 VRB 3 6 30.11 1020 5 8 0.04 1.02
2:27 pm 14:27 Cloudy with Light Rain 74 23.3 72 22.2 94 94 Calm 30.11 1020 9 14 0.04 1.02
2:53 pm 14:53 Cloudy with Light Rain 73 22.8 73 22.8 100 100 Calm 30.10 1019 8 13 0.05 1.27
3:53 pm 15:53 Cloudy with Light Rain 75 23.9 73 22.8 94 94 Calm 30.09 1019 10 16 0.03 0.76
4:53 pm 16:53 Cloudy with Light Rain 74 23.3 74 23.3 100 100 Calm 30.08 1019 6 10 0.03 0.76
5:10 pm 17:10 Cloudy with Light Rain 74 23.3 74 23.3 100 100 Calm 30.08 1019 7 11 0.01 0.25
5:46 pm 17:46 Cloudy with Light Rain 75 23.9 74 23.3 96 96 Calm 30.08 1019 10 16 0.02 0.51
5:53 pm 17:53 Cloudy with Light Rain 75 23.9 74 23.3 96 96 Calm 30.08 1019 10 16 0.02 0.51
6:53 pm 18:53 Cloudy with Light Rain 75 23.9 74 23.3 96 96 Calm 30.07 1018 9 14 0.02 0.51
7:53 pm 19:53 Mostly Cloudy 75 23.9 74 23.3 96 96 Calm 30.06 1018 10 16 0.00 0.00
8:53 pm 20:53 Mostly Cloudy 74 23.3 73 22.8 97 97 Calm 30.06 1018 8 13 0.00 0.00
9:53 pm 21:53 Mostly Cloudy 74 23.3 73 22.8 97 97 Calm 30.07 1018 8 13 0.00 0.00
10:53 pm 22:53 Cloudy 74 23.3 73 22.8 97 97 Calm 30.08 1019 10 16 0.00 0.00
11:53 pm 23:53 Cloudy 74 23.3 74 23.3 100 100 Calm 30.09 1019 9 14 0.00 0.00

Powered by AerisWeather